www.pogodaiklimat.ru

Погода и климат >> Архив погоды >> Парагвай >> Педро-Хуан-Кабальеро


ПОГОДА в Педро-Хуан-Кабальеро

  • Прогноз погоды в Педро-Хуан-Кабальеро
  • Монитор погоды в Педро-Хуан-Кабальеро

АРХИВ ПОГОДЫ в Педро-Хуан-Кабальеро

Время (UTC), дата Ветер
(напр.,м/с)
 
Видим.   Явления Облачность Т
(С)
Тd
(С)
f
(%)
Тe
(С)
Тes
(С)
Комфортность P
(гПа)
Po
(гПа)
Тmin
(С)
Tmax
(С)
R
(мм)
R24
(мм)
S
(см)
12 12.09 ЮЗ 4 <100 м туман ?/? +14.8 +14.8 100 +13 +13 1018.2 952.6 +14.8
15 12.09 ЮЗ 6 3000 м дымка {туман} 10/10 90 м
[St]
+15.2 +14.5 96 +13 +13 1019.9 954.2
18 12.09 Ю 5 7000 м дымка 10/10 210 м
[St]
+16.2 +13.9 86 +15 +15 1019.0 953.4
21 12.09 Ю 5 3000 м дымка 10/10 90 м
[St]
+14.4 +13.8 96 +13 +13 1019.0 953.4
00 13.09 Ю 5 <100 м туман ?/? +14.2 +14.0 99 +12 +12 1019.9 954.2 +25.6
03 13.09 Ю 6 <100 м туман ?/? +14.0 +14.0 100 +12 +12 1019.7 954.0
09 13.09 Ю 4 <100 м туман ?/? +13.8 +13.8 100 1020.5
12 13.09 ЮВ 5 5000 м дымка {туман} 9/3 150 м
[St Ac und]
+15.2 +13.3 88 +14 +15 1019.6 953.9 +13.6
15 13.09 Ю 5 15 км мгла 1/0
[Cs]
+21.8 +13.8 60 +25 +33 комфорт 1019.7 954.0
18 13.09 Ю 5 20 км ясно +26.8 +15.4 50 +30 +36 душно 1017.1 951.6
21 13.09 Ю 3 20 км 1/0
[Ac trans]
+26.6 +14.1 46 +29 +29 жарко 1015.6 950.2
00 14.09 Ю 3 20 км ясно +20.8 +14.4 67 +24 +24 комфорт 1016.4 950.9 +27.4
03 14.09 ЮВ 5 20 км ясно +18.2 +14.2 77 +18 +18 1016.6 951.1
06 14.09 В 5 20 км ясно +18.6 +14.1 75 +19 +19 1014.7 949.4
09 14.09 В 5 20 км ясно +19.6 +15.0 75 +21 +21 комфорт 1014.6 949.3
12 14.09 В 5 5000 м мгла ясно +24.2 +15.7 59 +27 +30 жарко 1016.5 951.0 +15.2
15 14.09 СВ 10 5000 м мгла ясно +31.4 +16.5 41 +35 +35 очень
душно
1015.7 950.3
18 14.09 С 8 8000 м мгла 4/4 800 м
[Cu Sc]
+36.2 +12.8 25 +36 +38 очень
жарко
1012.3 947.1
21 14.09 В 5 8000 м мгла 9/6 800 м
[Cu Sc Ac As]
+32.4 +15.6 36 +35 +35 душно 1011.4 946.3
00 15.09 В 5 20 км ясно +27.2 +13.6 43 +29 +29 жарко 1012.6 947.4 +36.6
03 15.09 В 8 20 км ясно +28.4 +12.5 37 +30 +30 жарко 1012.4 947.2
06 15.09 В 7 20 км ясно +27.6 +12.8 40 +29 +29 жарко 1011.0 945.9
09 15.09 В 6 20 км ясно +25.4 +12.8 46 +27 +27 жарко 1011.0 945.9
12 15.09 С 6 20 км ясно +30.8 +10.4 28 +31 +33 жарко 1013.6 948.3 +24.2
15 15.09 СВ 6 20 км ясно +35.4 +13.1 26 +36 +42 очень
жарко
1013.1 947.8
18 15.09 СЗ 5 7000 м мгла 4/0
[Ac trans]
+39.6 +6.7 14 +37 +42 очень
жарко
1010.3 945.2
21 15.09 СЗ 9 5000 м мгла 4/0
[Ac trans]
+36.2 +7.6 17 +34 +34 очень
жарко
1008.1 943.2
00 16.09 СЗ 4 5000 м мгла ясно +26.6 +13.9 46 +29 +29 жарко 1010.3 945.2 +39.6
03 16.09 С 3 5000 м мгла ясно +26.2 +13.8 46 +28 +28 жарко 1011.0 945.9
09 16.09 СВ 6 5000 м мгла ясно +25.8 +14.2 49 +28 +28 жарко 1010.9 945.8
12 16.09 СВ 5 3000 м дым ясно +31.0 +14.5 37 +33 +36 душно 1013.1 947.8 +23.8
15 16.09 СВ 9 2000 м дым ясно +37.4 +9.4 18 +36 +37 очень
жарко
1013.1 947.8
18 16.09 С 8 3000 м дым 1/0
[Ac trans]
+38.8 +7.6 15 +37 +38 очень
жарко
1011.1 946.0
21 16.09 СЗ 5 3000 м дым ясно +36.2 +7.6 17 +34 +34 очень
жарко
1010.8 945.7
00 17.09 С 3 3000 м дым ясно +29.0 +12.1 35 +30 +30 жарко 1011.8 946.6 +39.4
03 17.09 С 5 3000 м дым ясно +26.2 +12.3 42 +28 +28 жарко 1012.4 947.2
09 17.09 ЮЗ 5 3000 м дым 6/6 150 м
[St]
+21.4 +19.4 88 +26 +26 душно 1012.0 946.8
12 17.09 ЮЗ 3 500 м туман 10/10 120 м
[St]
+20.0 +18.4 91 +24 +24 комфорт 1013.7 948.4 +19.6
15 17.09 З 6 2000 м дымка {туман} 10/10 180 м
[St]
+21.8 +18.7 83 +27 +27 душно 1013.1 947.8
18 17.09 З 4 3000 м дым 9/9 300 м
[Sc]
+22.6 +18.2 76 +28 +29 душно 1010.3 945.2
21 17.09 ЮЗ 4 3000 м дым 8/0
[Cs]
+23.2 +18.0 73 +29 +29 душно 1009.3 944.3
00 18.09 Ю 4 20 км ясно +19.0 +17.2 89 +20 +20 1009.9 944.8 +29.0
03 18.09 Ю 3 20 км 6/0
[Cs]
+16.8 +15.3 91 +17 +17 1009.7 944.6
06 18.09 Ю 7 <100 м туман ?/? +16.0 +16.0 100 +14 +14 1009.7 944.6
09 18.09 Ю 3 <100 м туман ?/? +15.8 +15.8 100 +15 +15 1009.4 944.4
12 18.09 Ю 6 <100 м туман ?/? +16.4 +15.6 95 +15 +15 1012.2 947.0 +15.6
15 18.09 Ю 3 5000 м мгла 8/5 400 м
[Sc Ac trans]
+20.4 +14.9 71 +23 +28 комфорт 1013.5 947.7
18 18.09 З 3 5000 м мгла 6/0 300 м
[Ac trans]
+23.8 +15.7 60 +27 +34 жарко 1010.9 945.8
21 18.09 ЮЗ 2 5000 м мгла 6/0
[Ac trans]
+23.8 +16.0 62 +27 +27 жарко 1008.7 943.7
00 19.09 Ю 3 20 км 6/0
[Ac trans]
+19.2 +15.2 78 +21 +21 комфорт 1009.1 944.1 +25.8
03 19.09 ЮВ 2 20 км ясно +17.2 +15.0 87 +17 +17 1008.7 943.7
06 19.09 В 5 20 км 5/0
[Ac trans]
+18.8 +15.5 81 +20 +20 1007.9 943.0
09 19.09 СВ 6 20 км 5/0
[Ac trans]
+20.2 +14.9 72 +22 +22 комфорт 1006.7 941.8

 

Местоположение метеостанции Педро-Хуан-Кабальеро (Парагвай): широта -22.58 долгота -55.73 высота над уровнем моря 662 м.

В архиве по умолчанию представлена погода в Педро-Хуан-Кабальеро за последнюю неделю. Архивные данные за месяц целиком и за предыдущие месяцы, начиная с января 2011 года, Вы можете получить, выбрав интересующий диапазон дат из раскрывающегося списка и нажав кнопку "Ввод!".


*Определитесь, кто Вы:
робот инопланетянин человек

Внимание! Время в таблицах - всемирное. Для получения местного времени необходимо прибавить поправку, которая равна -4 ч.

Смотрите также архив погоды в соседних городах и на ближайших метеорологических станциях:

Погода в Понта-Пора (Мату-Гросу-ду-Сул, Бразилия) (6 км)
Погода в Понта-Поране (Мату-Гросу-ду-Сул, Бразилия) (21 км)
Погода в Амамбаи (Мату-Гросу-ду-Сул, Бразилия) (62 км)
Погода в Дорадусе (Мату-Гросу-ду-Сул, Бразилия) (93 км)
Погода в Бела-Виста (Мату-Гросу-ду-Сул, Бразилия) (99 км)
Погода в Жути (Мату-Гросу-ду-Сул, Бразилия) (120 км)
Погода в Маракажу (Мату-Гросу-ду-Сул, Бразилия) (121 км)
Погода в Жардиме (Мату-Гросу-ду-Сул, Бразилия) (129 км)
Погода в Рио-Брилханте (Мату-Гросу-ду-Сул, Бразилия) (152 км)
Погода в Сети-Кедасе (Мату-Гросу-ду-Сул, Бразилия) (171 км)

Пояснения к столбцам:

Ветер - указаны скорость ветра в м/с - средняя за 10 мин, порывы в срок и между сроками (в фигурных скобках) и направление, откуда дует ветер: С - северный, СВ - северо-восточный, В - восточный, ЮВ - юго-восточный, Ю - южный, ЮЗ - юго-западный, З - западный, СЗ - северо-западный.
Видимость - горизонтальная дальность видимости в метрах или километрах. При видимости от 1 до 10 км при отсутствии осадков обычно наблюдается дымка, при ухудшении видимости до 1 км и менее - туман. В сухую погоду видимость может ухудшаться дымом, пылью или мглою.
Явления - указаны атмосферные явления, наблюдавшиеся в срок или в последний час перед сроком; фигурными скобками обозначены явления, наблюдавшиеся между сроками (за 1-3 часа до срока); квадратными скобками обозначены град или гололедные отложения с указанием их диаметра в мм.
Облачность - указаны через наклонную черту общая и нижняя облачность в баллах и высота нижней границы облаков в метрах; квадратными скобками обозначены формы облаков: Ci - перистые, Cs - перисто-слоистые, Cc - перисто-кучевые, Ac - высококучевые, As - высокослоистые, Sc - слоисто-кучевые, Ns - слоисто-дождевые, Cu - кучевые, Cb - кучево-дождевые. Подробнее классификацию облаков см. в Атласе облаков (PDF).
T - Температура воздуха - температура, измеренная на высоте 2 м над землей.
Td - Температура точки росы - температура, при понижении до которой содержащийся в воздухе водяной пар достигнет насыщения.
f - Относительная влажность воздуха - влажноcть воздуха, измеренная на высоте 2 м над землей.
Te - Эффективная температура - температура, которую ощущает одетый по сезону человек в тени. Характеристика душности погоды. При расчете учитывается влияние влажности воздуха и скорости ветра на теплоощущения человека.
Tes - Эффективная температура на солнце - температура, которую ощущает человек, с поправкой на солнечный нагрев. Характеристика знойности погоды. Зависит от высоты солнца над горизонтом, облачности и скорости ветра. Ночью, в пасмурную погоду, а также при ветре 12 м/с и более поправка равна нулю.
P - Атмосферное давление - приведенное к уровню моря атмосферное давление.
Po - Атмосферное давление - измеренное на уровне метеостанции атмосферное давление.
Tmin - Минимальная температура - минимум температуры воздуха на высоте 2 м над землей.
Tmax - Максимальная температура - максимум температуры воздуха на высоте 2 м над землей.
R - Количество осадков - Количество выпавших осадков за период времени, мм. При наведении курсора мыши на число - период времени, за который выпало указанное количество осадков.
R24 - Количество осадков - Количество выпавших осадков за 24 часа, мм.
S - Снежный покров - Высота снежного покрова, см. При наведении курсора мыши на число - состояние снежного покрова и степень покрытия местности в баллах.